FW6068 Weather Reports


Display with metric or nautical units.
time (UTC)temp
F
wind
direction
speed
MPH
gust
MPH
rain 1hr
in
rain 24hr
in
rain mn
in
humidity
%
barometer
mb
20260503173036 59 131 0.0 3.0 0.00 0.00 0.00 36 1017.9
20260503171533 60 131 0.0 2.0 0.00 0.00 0.00 38 1018.1
20260503081550 39 131 0.0 0.0 0.00 0.00 0.00 83 1015.9
20260503071506 39 131 0.0 0.0 0.00 0.00 0.00 81 1015.4
20260503060108 42 131 0.0 0.0 0.00 0.00 0.00 76 1014.9
20260503054610 43 131 0.0 0.0 0.00 0.00 0.00 75 1015.1
20260503054503 43 131 0.0 0.0 0.00 0.00 0.00 75 1015.1
20260503053100 43 131 0.0 0.0 0.00 0.00 0.00 74 1015.1
20260503053001 43 131 0.0 0.0 0.00 0.00 0.00 74 1015.1
20260503051503 42 131 0.0 0.0 0.00 0.00 0.00 74 1015.2
20260503050005 42 131 0.0 0.0 0.00 0.00 0.00 74 1015.2
20260503044505 43 131 0.0 0.0 0.00 0.00 0.00 75 1015.1
20260503043007 42 131 0.0 0.0 0.00 0.00 0.00 74 1015.0
20260503041511 42 131 0.0 0.0 0.00 0.00 0.00 74 1014.8
20260503040015 43 131 0.0 0.0 0.00 0.00 0.00 72 1014.4
20260503034512 43 131 0.0 0.0 0.00 0.00 0.00 71 1014.3
20260503033106 44 131 0.0 0.0 0.00 0.00 0.00 70 1014.3
20260503031551 44 131 0.0 0.0 0.00 0.00 0.00 69 1014.2
20260503030057 45 131 0.0 0.0 0.00 0.00 0.00 67 1014.1
20260503024557 46 131 0.0 0.0 0.00 0.00 0.00 65 1014.0
20260503023105 46 131 0.0 0.0 0.00 0.00 0.00 64 1014.0
20260503021504 47 131 0.0 0.0 0.00 0.00 0.00 63 1013.7
20260503020005 47 131 0.0 0.0 0.00 0.00 0.00 61 1013.6
20260503014508 48 131 0.0 0.0 0.00 0.00 0.00 58 1013.4
20260503013011 48 131 0.0 4.0 0.00 0.00 0.00 58 1013.4
20260503011602 49 131 0.0 1.0 0.00 0.00 0.00 56 1013.1
20260503010053 50 131 0.0 0.0 0.00 0.00 0.00 56 1012.9
20260503004550 50 131 0.0 0.0 0.00 0.00 0.00 53 1012.7
20260503003101 51 131 0.0 1.0 0.00 0.00 0.00 50 1012.5
20260503001557 52 131 0.0 1.0 0.00 0.00 0.00 50 1012.1
20260503000100 53 131 0.0 2.0 0.00 0.00 0.00 48 1011.7
20260502234555 54 131 0.0 5.0 0.00 0.00 0.00 46 1011.5
20260502233100 54 131 0.0 2.0 0.00 0.00 0.00 46 1011.4
20260502231551 55 131 1.0 4.0 0.00 0.00 0.00 44 1011.2
20260502230108 55 131 1.0 5.0 0.00 0.00 0.00 43 1011.2
20260502224600 55 131 0.0 3.0 0.00 0.00 0.00 44 1011.0
20260502224501 55 131 0.0 3.0 0.00 0.00 0.00 44 1010.8
20260502223100 56 130 0.0 3.0 0.00 0.00 0.00 43 1010.9
20260502223002 56 131 0.0 3.0 0.00 0.00 0.00 42 1010.9
20260502221601 57 131 0.0 3.0 0.00 0.00 0.00 42 1010.9
20260502221503 57 131 0.0 3.0 0.00 0.00 0.00 42 1010.8
20260502220003 57 131 0.0 4.0 0.00 0.00 0.00 44 1010.7
20260502214557 57 131 0.0 2.0 0.00 0.00 0.00 40 1010.5
20260502213055 57 131 0.0 3.0 0.00 0.00 0.00 42 1010.3
20260502211558 57 131 1.0 5.0 0.00 0.00 0.00 40 1010.2
20260502210057 58 131 0.0 4.0 0.00 0.00 0.00 38 1010.2
20260502204600 60 131 0.0 3.0 0.00 0.00 0.00 40 1010.2
20260502203059 60 131 0.0 3.0 0.00 0.00 0.00 41 1010.0
20260502201539 60 131 0.0 7.0 0.00 0.00 0.00 39 1010.0
20260502200019 59 131 0.0 4.0 0.00 0.00 0.00 36 1009.9
20260502194519 60 131 1.0 5.0 0.00 0.00 0.00 37 1010.2
20260502193022 61 131 0.0 4.0 0.00 0.00 0.00 38 1010.2
20260502191523 59 131 0.0 4.0 0.00 0.00 0.00 39 1010.2
20260502190024 59 130 0.0 4.0 0.00 0.00 0.00 41 1010.4
20260502184528 58 131 0.0 4.0 0.00 0.00 0.00 39 1010.4
20260502183021 59 131 0.0 1.0 0.00 0.00 0.00 42 1010.4
20260502181521 59 131 0.0 3.0 0.00 0.00 0.00 41 1010.4